2022/12/24 00:00:00,83.2,-3.0
2022/12/24 00:10:00,83.0,-3.4
2022/12/24 00:20:00,82.7,-3.2
2022/12/24 00:30:00,82.6,-4.0
2022/12/24 00:40:00,82.1,-3.5
2022/12/24 00:50:00,81.7,-3.5
2022/12/24 01:00:00,81.0,-4.3
2022/12/24 01:10:00,80.9,-4.6
2022/12/24 01:20:00,80.9,-4.8
2022/12/24 01:30:00,80.2,-4.8
2022/12/24 01:40:00,80.5,-4.8
2022/12/24 01:50:00,80.5,-4.6
2022/12/24 02:00:00,80.3,-4.6
2022/12/24 02:10:00,79.8,-4.6
2022/12/24 02:20:00,79.5,-4.6
2022/12/24 02:30:00,79.8,-4.1
2022/12/24 02:40:00,79.8,-3.6
2022/12/24 02:50:00,79.4,-3.7
2022/12/24 03:00:00,78.8,-3.9
2022/12/24 03:10:00,78.6,-3.9
2022/12/24 03:20:00,78.5,-3.8
2022/12/24 03:30:00,78.3,-3.7
2022/12/24 03:40:00,78.2,-3.7
2022/12/24 03:50:00,78.0,-3.1
2022/12/24 04:00:00,78.1,-3.2
2022/12/24 04:10:00,77.9,-3.3
2022/12/24 04:20:00,77.8,-3.2
2022/12/24 04:30:00,77.5,-3.3
2022/12/24 04:40:00,77.3,-3.0
2022/12/24 04:50:00,76.9,-2.8
2022/12/24 05:00:00,76.8,-2.5
2022/12/24 05:10:00,76.6,-2.8
2022/12/24 05:20:00,76.4,-2.7
2022/12/24 05:30:00,76.2,-2.4
2022/12/24 05:40:00,76.2,-2.8
2022/12/24 05:50:00,76.5,-2.4
2022/12/24 06:00:00,76.9,-2.4
2022/12/24 06:10:00,77.5,-2.3
2022/12/24 06:20:00,77.7,-2.0
2022/12/24 06:30:00,77.5,-2.2
2022/12/24 06:40:00,77.6,-2.3
2022/12/24 06:50:00,78.3,-1.9
2022/12/24 07:00:00,78.9,-1.8
2022/12/24 07:10:00,78.9,-1.6
2022/12/24 07:20:00,79.1,-1.7
2022/12/24 07:30:00,79.2,-2.1
2022/12/24 07:40:00,79.4,-1.4
2022/12/24 07:50:00,79.8,-1.7
2022/12/24 08:00:00,79.0,-1.6
2022/12/24 08:10:00,78.7,-1.0
2022/12/24 08:20:00,78.4,-1.2
2022/12/24 08:30:00,78.1,-0.6
2022/12/24 08:40:00,77.9,-1.0
2022/12/24 08:50:00,78.1,-0.7
2022/12/24 09:00:00,78.6,-0.7
2022/12/24 09:10:00,78.2,-0.3
2022/12/24 09:20:00,78.1, 0.1
2022/12/24 09:30:00,78.0,-0.1
2022/12/24 09:40:00,77.9, 0.4
2022/12/24 09:50:00,77.8, 0.9
2022/12/24 10:00:00,77.6, 2.2
2022/12/24 10:10:00,77.4, 2.3
2022/12/24 10:20:00,77.2, 1.1
2022/12/24 10:30:00,77.0, 1.4
2022/12/24 10:40:00,76.7, 2.2
2022/12/24 10:50:00,76.2, 1.2
2022/12/24 11:00:00,75.9, 1.4
2022/12/24 11:10:00,75.8, 2.4
2022/12/24 11:20:00,75.6, 2.5
2022/12/24 11:30:00,75.2, 1.3
2022/12/24 11:40:00,75.0, 1.2
2022/12/24 11:50:00,75.0, 1.8
2022/12/24 12:00:00,74.7, 2.0
2022/12/24 12:10:00,74.4, 0.9
2022/12/24 12:20:00,74.6, 1.2
2022/12/24 12:30:00,75.0, 0.9
2022/12/24 12:40:00,75.0, 0.9
2022/12/24 12:50:00,74.8, 0.9
2022/12/24 13:00:00,74.6, 0.9
2022/12/24 13:10:00,74.2, 1.1
2022/12/24 13:20:00,73.9, 0.7
2022/12/24 13:30:00,73.4, 0.8
2022/12/24 13:40:00,73.2, 1.1
2022/12/24 13:50:00,73.1, 0.8
2022/12/24 14:00:00,73.0, 0.7
2022/12/24 14:10:00,72.8, 0.7
2022/12/24 14:20:00,72.5, 0.5
2022/12/24 14:30:00,72.1, 0.9
2022/12/24 14:40:00,72.0, 0.7
2022/12/24 14:50:00,72.0, 0.9
2022/12/24 15:00:00,71.8, 1.0
2022/12/24 15:10:00,71.4, 1.0
2022/12/24 15:20:00,71.1, 1.0
2022/12/24 15:30:00,70.8, 0.5
2022/12/24 15:40:00,70.6, 0.6
2022/12/24 15:50:00,70.6, 0.5
2022/12/24 16:00:00,70.4, 0.4
2022/12/24 16:10:00,70.2, 0.4
2022/12/24 16:20:00,70.0, 0.4
2022/12/24 16:30:00,69.8, 0.2
2022/12/24 16:40:00,69.9, 0.4
2022/12/24 16:50:00,69.6, 0.4
2022/12/24 17:00:00,69.2, 0.3
2022/12/24 17:10:00,69.6, 0.0
2022/12/24 17:20:00,69.6, 0.3
2022/12/24 17:30:00,69.3, 0.0
2022/12/24 17:40:00,69.2, 0.8
2022/12/24 17:50:00,69.1, 0.7
2022/12/24 18:00:00,69.0,-0.3
2022/12/24 18:10:00,68.7, 0.2
2022/12/24 18:20:00,68.5, 0.3
2022/12/24 18:30:00,68.4, 0.7
2022/12/24 18:40:00,68.3, 0.4
2022/12/24 18:50:00,68.2, 0.1
2022/12/24 19:00:00,68.0, 0.0
2022/12/24 19:10:00,67.9, 0.4
2022/12/24 19:20:00,67.8, 0.3
2022/12/24 19:30:00,67.7, 0.4
2022/12/24 19:40:00,67.9, 0.4
2022/12/24 19:50:00,67.8, 0.3
2022/12/24 20:00:00,67.6, 0.3
2022/12/24 20:10:00,67.6,-0.3
2022/12/24 20:20:00,67.7, 0.0
2022/12/24 20:30:00,67.4, 0.2
2022/12/24 20:40:00,67.3, 0.3
2022/12/24 20:50:00,67.4, 0.2
2022/12/24 21:00:00,67.2, 0.0
2022/12/24 21:10:00,67.0, 0.1
2022/12/24 21:20:00,66.8, 0.1
2022/12/24 21:30:00,66.7, 0.3
2022/12/24 21:40:00,66.6, 0.0
2022/12/24 21:50:00,66.3, 0.4
2022/12/24 22:00:00,66.2, 0.3
2022/12/24 22:10:00,66.3, 0.1
2022/12/24 22:20:00,66.3, 0.3
2022/12/24 22:30:00,65.8, 0.1
2022/12/24 22:40:00,65.6, 0.0
2022/12/24 22:50:00,65.1, 0.2
2022/12/24 23:00:00,64.3, 0.0
2022/12/24 23:10:00,63.1,-0.1
2022/12/24 23:20:00,62.7,-0.1
2022/12/24 23:40:00,43.6, 0.1
2022/12/24 23:50:00,62.2, 0.4
